Temperature
-0 0 0 1 1 1 0 0 1 1 1 1 1 0 1 1 1 1 1 0 0 0 -0 -1 -1 -1 -1 -1 -1 -2 -2 -2 -2 -2 -2 -2 -2 -2 -2 -2 -2 -2 -2 -2
-1 0 -0 0 -0 -0 -0 -0 -0 -0 -0 -0 0 0 0 0 0 -0 -0 -0 -0 -1 -1 -1 -1 -1 -1 -2 -2 -2 -2 -2 -2 -2 -2 -2 -2 -2 -2 -2 -2 -2 -2 -2
-0 -1 -0 0 -0 -1 -1 -1 -1 -0 0 -1 -1 -1 -1 -0 -0 -0 -1 -1 -1 -1 -1 -2 -2 -2 -2 -2 -2 -2 -3 -3 -3 -2 -2 -2 -2 -2 -3 -3 -2 -3 -3 -3
-2 -1 1 1 -1 -1 -1 -2 -2 -2 -2 -1 -1 -1 -1 -0 -0 -1 -1 -1 -1 -2 -2 -2 -2 -2 -2 -2 -3 -3 -3 -3 -3 -3 -3 -3 -3 -3 -3 -3 -3 -3 -3 -3
-3 -2 -1 -0 -1 -2 -2 -1 -2 -3 -3 -2 -2 -2 -1 -1 -1 -1 -2 -2 -2 -2 -2 -2 -2 -2 -3 -3 -3 -3 -3 -3 -3 -3 -3 -3 -3 -3 -3 -3 -3 -3 -3 -3
-3 -1 -0 1 -1 -2 -1 -1 -2 -3 -3 -3 -3 -3 -2 -1 -2 -2 -2 -2 -2 -2 -2 -2 -3 -3 -3 -3 -3 -3 -4 -4 -4 -4 -4 -4 -4 -4 -4 -4 -4 -4 -4 -4
-3 -2 -1 -2 -2 -2 -1 -0 -1 -2 -2 -3 -3 -3 -2 -2 -2 -2 -2 -3 -3 -3 -3 -3 -3 -3 -3 -4 -4 -4 -4 -4 -4 -4 -4 -4 -4 -4 -4 -4 -4 -4 -4 -4
-4 -3 -1 -2 -3 -2 -1 -1 -1 -1 -2 -2 -2 -2 -2 -2 -3 -3 -3 -3 -3 -3 -3 -3 -3 -4 -4 -4 -4 -4 -4 -4 -4 -4 -5 -5 -5 -4 -5 -5 -5 -4 -5 -4
-3 -2 -2 -2 -2 -1 -1 -1 -1 -1 -2 -2 -2 -2 -3 -3 -3 -3 -3 -3 -3 -3 -3 -3 -4 -4 -4 -4 -4 -4 -4 -5 -5 -5 -5 -5 -5 -5 -5 -5 -5 -5 -5 -5
-5 -4 -3 -2 -2 -1 -1 -1 -2 -2 -2 -2 -2 -2 -3 -3 -3 -3 -4 -4 -4 -4 -4 -4 -4 -4 -4 -5 -5 -5 -5 -5 -5 -5 -5 -5 -5 -5 -5 -5 -5 -5 -5 -5
-5 -5 -4 -2 -1 -1 -2 -2 -2 -2 -3 -3 -3 -3 -3 -3 -3 -4 -4 -4 -4 -4 -4 -4 -4 -5 -5 -5 -5 -5 -5 -5 -6 -5 -6 -6 -6 -6 -6 -6 -6 -6 -6 -6
-3 -2 -3 -2 -1 -2 -2 -2 -2 -3 -3 -3 -3 -3 -3 -3 -4 -4 -4 -4 -4 -4 -5 -5 -5 -5 -5 -5 -5 -6 -6 -6 -6 -6 -6 -6 -6 -6 -6 -6 -6 -6 -6 -6
-2 -1 -2 -2 -2 -2 -2 -2 -3 -3 -3 -3 -3 -4 -4 -4 -4 -4 -4 -4 -5 -5 -5 -5 -5 -5 -5 -6 -6 -6 -6 -6 -6 -6 -6 -7 -7 -7 -6 -6 -6 -6 -6 -6
-2 -2 -2 -2 -2 -2 -3 -3 -3 -3 -3 -4 -4 -4 -4 -4 -4 -4 -5 -5 -5 -5 -5 -5 -5 -5 -6 -6 -6 -6 -6 -6 -6 -7 -7 -7 -7 -7 -7 -7 -7 -7 -7 -7
-2 -3 -3 -3 -3 -3 -3 -3 -3 -3 -4 -4 -4 -4 -4 -5 -4 -5 -5 -5 -5 -5 -5 -5 -5 -6 -6 -6 -6 -6 -6 -7 -7 -7 -7 -7 -7 -7 -7 -7 -7 -7 -7 -7
-3 -3 -3 -3 -3 -3 -3 -4 -4 -4 -4 -4 -4 -4 -5 -5 -5 -5 -5 -5 -5 -5 -5 -6 -6 -6 -6 -6 -6 -6 -7 -7 -7 -7 -7 -7 -7 -7 -8 -8 -8 -8 -7 -7
-3 -3 -3 -3 -3 -4 -4 -4 -4 -4 -4 -4 -4 -5 -5 -5 -5 -5 -5 -5 -6 -6 -6 -6 -6 -6 -6 -6 -7 -7 -7 -7 -7 -7 -7 -8 -8 -8 -8 -8 -8 -8 -8 -8
-3 -3 -3 -4 -4 -4 -4 -4 -4 -4 -4 -5 -5 -5 -5 -5 -5 -5 -6 -6 -6 -6 -6 -6 -6 -6 -7 -7 -7 -7 -7 -7 -7 -8 -8 -8 -8 -8 -8 -8 -8 -8 -8 -8
-3 -3 -4 -4 -4 -4 -4 -4 -4 -4 -5 -5 -5 -5 -5 -6 -6 -6 -6 -6 -6 -6 -6 -6 -6 -7 -7 -7 -7 -7 -7 -7 -8 -8 -8 -8 -8 -8 -8 -8 -8 -8 -8 -8
-4 -4 -4 -4 -4 -4 -4 -4 -4 -5 -5 -5 -5 -5 -6 -6 -6 -6 -6 -6 -6 -6 -6 -7 -7 -7 -7 -7 -7 -7 -8 -8 -8 -8 -8 -8 -8 -8 -8 -8 -8 -8 -8 -8
-4 -4 -4 -4 -4 -4 -5 -5 -5 -5 -5 -5 -6 -6 -6 -6 -6 -7 -7 -7 -7 -7 -7 -7 -7 -7 -7 -7 -7 -8 -8 -8 -8 -8 -8 -8 -8 -9 -9 -9 -9 -9 -9 -8
-4 -4 -5 -5 -5 -5 -5 -5 -5 -6 -6 -6 -6 -6 -6 -6 -7 -7 -7 -7 -7 -7 -7 -7 -7 -7 -7 -8 -8 -8 -8 -8 -8 -8 -8 -9 -9 -9 -9 -9 -9 -9 -9 -9
-5 -5 -5 -5 -5 -6 -6 -6 -6 -6 -6 -6 -6 -6 -6 -7 -7 -7 -7 -7 -7 -8 -8 -7 -7 -8 -8 -8 -8 -8 -8 -8 -8 -9 -9 -9 -9 -9 -9 -9 -9 -9 -9 -9
-5 -5 -5 -6 -6 -6 -6 -6 -6 -6 -7 -7 -7 -7 -7 -7 -7 -7 -7 -8 -8 -8 -8 -8 -8 -8 -8 -8 -8 -8 -8 -9 -9 -9 -9 -9 -9 -9 -9 -9 -9 -9 -9 -9
-6 -6 -6 -6 -6 -6 -6 -6 -7 -7 -7 -7 -7 -7 -7 -7 -7 -7 -8 -8 -8 -8 -8 -8 -8 -8 -8 -8 -8 -8 -9 -9 -9 -9 -9 -9 -9 -9 -9 -9 -9 -9 -9 -9
-6 -6 -7 -7 -7 -7 -7 -7 -7 -7 -7 -7 -7 -7 -8 -8 -8 -8 -8 -8 -8 -8 -8 -8 -8 -8 -8 -8 -9 -9 -9 -9 -9 -9 -9 -9 -9 -9 -9 -9 -9 -9 -9 -9
-7 -7 -7 -7 -7 -7 -7 -7 -7 -7 -7 -8 -8 -8 -8 -8 -8 -8 -8 -8 -8 -8 -8 -9 -9 -9 -9 -9 -9 -9 -9 -9 -9 -9 -9 -9 -9 -9 -9 -9 -9 -9 -9 -9
Wind_Speed
4 4 3 5 7 7 8 8 8 8 8 9 6 5 5 4 4 3 4 4 4 4 3 3 3 3 2 2 2 2 1 2 2 2 2 2 2 2 2 3 3 3 3 3
3 3 3 5 7 8 9 7 8 7 9 7 4 3 4 5 4 4 5 5 5 4 4 4 3 3 2 2 2 2 2 2 2 2 2 2 2 2 2 3 3 3 3 3
3 4 3 7 8 8 6 6 7 9 8 3 3 4 5 5 4 5 6 6 5 5 4 4 4 3 3 3 2 2 2 2 2 2 2 2 2 2 2 3 3 3 3 3
1 2 6 6 2 5 5 6 6 6 5 5 6 6 5 4 3 4 5 5 5 4 4 4 3 2 2 2 2 2 2 2 2 2 2 2 2 3 3 3 3 3 4 4
2 3 7 7 2 3 4 6 5 6 6 4 4 4 4 2 2 3 4 5 5 4 3 3 3 2 1 1 1 2 2 2 2 2 3 2 3 3 3 3 3 3 4 4
3 3 6 6 2 0 1 5 3 4 5 3 1 3 5 2 3 4 5 4 4 3 2 2 3 1 1 2 2 2 2 2 2 2 3 3 3 3 3 3 3 4 4 4
4 5 8 5 1 2 2 6 3 4 5 4 4 6 5 4 4 4 4 4 3 2 2 2 2 1 1 1 2 2 2 1 1 2 2 3 3 2 2 3 3 3 4 4
4 5 7 3 4 5 5 2 2 3 4 4 5 5 4 4 4 4 4 4 3 2 3 3 1 1 1 2 2 1 1 1 1 2 2 2 2 2 2 2 2 3 3 4
7 7 3 3 4 4 2 3 3 3 4 4 4 4 5 4 4 3 3 3 3 2 3 3 2 1 2 3 1 1 1 1 2 2 2 2 1 2 2 2 2 3 3 3
4 7 5 5 4 4 3 4 4 4 4 4 5 5 5 4 3 3 3 3 3 2 2 3 3 2 2 2 1 0 1 1 1 1 2 2 2 2 2 2 2 3 3 3
6 7 5 5 5 4 3 3 3 4 4 4 4 5 4 4 4 3 3 3 2 2 3 4 3 2 2 1 1 1 1 1 1 2 2 2 2 2 2 2 3 3 3 2
8 7 5 6 5 4 3 4 4 4 5 4 4 5 4 4 4 3 3 3 3 3 3 3 3 3 2 2 1 1 1 1 1 1 1 2 2 3 5 4 6 6 5 4
7 5 5 5 4 3 4 5 4 4 5 5 4 4 3 3 3 3 3 3 3 3 3 3 3 3 3 2 1 1 2 2 2 2 1 2 2 2 3 5 6 6 6 6
5 3 4 4 4 3 3 3 3 4 4 4 4 3 3 3 3 3 4 4 3 3 3 2 2 3 3 2 1 1 2 2 2 1 2 2 2 2 2 3 4 4 5 7
6 5 6 4 3 2 2 1 2 4 4 3 2 3 3 3 4 4 4 3 2 2 3 2 2 3 2 2 1 2 2 2 2 1 2 2 2 2 2 3 3 3 4 5
3 2 3 3 4 4 2 2 4 5 4 4 3 4 4 4 4 4 3 2 2 3 4 3 4 3 2 2 2 2 2 3 2 2 1 2 2 2 2 2 3 3 3 4
3 4 4 4 5 5 5 5 6 6 5 5 5 4 3 2 3 3 3 3 3 4 4 4 4 3 2 2 2 2 2 2 3 2 2 2 2 2 2 2 3 3 3 4
4 5 5 5 5 6 6 5 6 5 5 5 4 3 3 3 4 4 4 3 2 3 3 3 3 2 2 2 2 2 2 2 2 2 2 2 2 2 2 2 3 3 3 4
2 3 4 4 5 5 5 5 5 5 4 3 3 4 4 4 4 4 3 2 2 3 3 3 3 2 2 3 2 2 2 2 2 2 2 3 2 2 2 2 3 3 3 3
2 3 3 3 3 3 4 4 4 4 3 3 3 3 4 4 3 3 3 3 4 4 3 3 3 2 3 3 3 2 2 2 2 2 2 2 2 3 3 3 3 3 3 3
3 3 3 3 4 3 3 3 3 3 3 2 3 4 4 4 3 3 2 3 3 3 3 3 2 2 3 3 2 2 2 2 2 3 3 3 3 3 3 3 3 3 3 3
3 3 3 3 3 4 4 3 2 3 3 2 3 3 3 3 3 3 4 4 3 4 2 2 2 4 3 2 1 1 2 2 2 2 3 3 3 3 3 3 3 3 3 3
3 3 3 3 3 4 4 3 3 2 3 3 3 3 3 3 3 3 3 2 2 4 2 2 4 4 3 1 1 1 2 2 2 3 3 3 3 3 3 3 3 3 3 3
3 3 3 3 2 2 3 3 3 3 3 3 3 3 3 2 2 3 3 4 4 4 2 3 4 4 2 1 1 2 2 2 3 3 3 3 3 3 3 3 3 3 3 3
2 2 2 2 2 2 3 3 3 3 2 2 3 3 2 2 3 2 2 3 3 3 2 3 4 3 1 1 2 2 2 3 3 3 3 3 3 3 3 3 3 3 3 3
2 2 2 2 2 2 2 2 2 2 2 2 3 2 2 1 2 2 1 2 2 2 2 2 2 2 1 1 2 2 2 3 3 3 3 3 3 3 3 3 3 3 3 3
2 2 2 2 2 2 2 2 2 3 2 2 3 2 2 1 1 1 1 1 1 1 1 2 1 2 1 1 2 2 2 2 2 2 2 2 3 3 3 3 3 3 3 3
Wind_Direction
256 270 234 235 234 216 211 213 218 242 244 264 263 266 277 284 290 304 306 302 292 288 287 291 290 275 258 266 267 256 234 241 255 271 275 273 275 277 284 285 280 279 280 283
281 284 264 261 249 228 231 232 239 255 266 262 264 270 284 286 285 291 293 292 291 290 290 282 278 271 267 273 269 246 231 243 259 267 279 274 268 272 284 291 291 290 288 284
262 308 335 271 237 208 215 219 208 232 247 265 282 273 272 280 279 280 286 292 291 289 286 283 277 263 251 257 265 240 235 247 255 257 271 272 273 274 277 277 277 279 279 278
206 29 243 249 222 199 213 244 228 239 257 254 258 272 273 260 257 280 296 298 299 298 298 295 291 284 266 255 248 248 242 245 253 261 267 275 274 270 271 270 269 272 275 273
160 232 275 288 242 176 198 264 230 234 258 273 290 305 286 243 257 272 283 286 284 282 283 290 294 292 281 275 268 261 254 257 261 263 266 268 269 271 269 270 275 274 277 274
158 201 244 257 249 228 115 275 238 220 247 268 321 298 275 287 303 302 304 300 298 305 304 294 294 300 286 283 281 269 270 271 271 267 264 265 266 273 273 271 274 282 286 280
198 229 261 255 236 107 176 259 248 228 239 235 228 238 271 295 296 297 302 309 312 312 297 285 285 285 271 278 276 282 292 289 291 285 273 267 268 270 274 278 287 286 286 287
179 212 253 216 142 184 229 272 265 257 248 241 252 272 286 287 290 304 313 321 324 320 309 304 285 230 262 273 282 303 321 313 306 298 289 292 286 288 280 276 289 289 289 297
200 221 260 211 209 241 244 258 266 265 265 248 256 267 280 284 287 294 299 306 313 311 308 308 303 253 252 282 292 309 326 314 312 319 318 315 298 294 299 289 285 292 295 298
248 262 260 254 258 270 254 250 265 266 267 250 252 262 271 278 287 293 297 300 313 316 305 303 307 308 278 292 306 281 287 302 311 315 323 326 318 306 299 292 288 292 300 303
253 270 290 267 238 244 257 256 271 283 270 248 249 261 257 263 272 279 293 301 299 289 290 295 305 306 303 300 314 307 295 297 308 311 307 318 322 309 299 280 287 296 288 288
238 235 221 253 248 223 234 253 259 271 285 277 248 253 257 261 263 269 281 289 293 292 291 294 300 302 305 304 290 275 293 304 307 306 315 325 323 326 324 318 323 321 317 311
238 248 237 252 255 232 238 251 256 258 262 273 266 247 246 260 262 266 275 277 274 276 282 286 287 289 293 291 276 250 264 286 297 305 314 316 322 324 325 333 335 335 332 328
237 237 257 247 246 254 255 262 268 274 270 265 262 259 251 260 266 264 264 270 273 272 274 274 277 282 287 285 270 262 262 276 290 284 288 294 301 307 309 320 331 333 335 335
251 235 236 250 257 266 271 273 286 285 286 281 264 257 254 255 261 267 274 280 281 273 271 269 273 281 287 275 260 263 268 277 281 278 281 287 299 307 312 314 316 320 328 335
259 244 230 236 249 261 262 252 258 269 274 272 270 267 260 256 262 270 271 252 241 259 267 266 268 274 274 260 257 264 266 281 294 288 283 291 297 306 313 314 315 317 321 325
224 244 240 246 250 253 247 243 246 256 264 267 266 267 268 268 272 276 279 269 255 257 258 252 260 272 267 250 238 256 270 278 291 298 286 282 287 289 295 304 309 310 308 316
232 242 242 241 247 254 261 257 254 255 252 257 263 254 251 249 256 267 278 289 295 289 272 260 262 266 263 260 243 242 256 267 273 273 282 284 286 284 287 296 302 306 312 319
261 259 265 261 251 247 255 260 260 256 258 251 246 250 252 252 254 261 266 264 260 270 273 271 284 282 262 261 263 230 239 256 266 271 275 284 296 296 291 291 294 299 308 318
289 286 284 287 285 263 264 268 266 264 257 239 242 253 262 264 259 257 255 254 248 252 261 269 271 263 258 255 257 227 231 240 247 255 260 263 270 280 282 283 287 292 299 306
292 293 296 297 299 295 283 278 272 271 269 243 235 245 256 268 262 246 243 268 270 265 262 269 279 267 259 257 254 232 233 238 243 247 254 260 265 270 274 278 282 287 292 295
287 289 294 298 303 307 307 298 283 277 275 263 255 251 256 268 270 264 246 244 257 276 284 261 272 269 275 270 231 233 238 241 247 250 252 257 260 265 270 273 277 283 286 289
282 284 291 294 292 296 308 307 295 282 270 262 254 248 247 251 248 249 271 267 267 274 283 261 276 281 287 261 232 239 243 246 249 253 257 260 260 261 265 268 272 276 281 286
286 292 294 300 305 309 309 308 304 291 279 273 263 253 246 261 270 250 258 275 286 287 282 278 284 283 291 292 259 251 249 252 256 259 263 264 262 261 263 266 270 274 277 282
283 286 293 303 302 292 290 303 310 305 299 290 285 276 260 243 247 270 280 270 276 291 294 284 289 296 300 282 269 263 259 258 259 259 259 268 270 271 269 269 269 273 276 278
280 283 279 269 264 273 281 285 288 291 294 295 298 290 291 289 276 278 281 278 274 300 309 293 289 292 288 280 277 274 274 280 287 284 275 274 273 274 275 279 279 278 279 283
291 290 294 297 289 276 268 264 267 274 274 274 285 292 298 302 298 295 294 296 297 299 298 296 292 278 278 283 285 283 282 281 281 281 282 281 279 277 277 279 281 280 283 284
Height
1515 1512 1513 1511 1511 1511 1513 1511 1512 1505 1504 1497 1496 1495 1493 1492 1491 1489 1488 1487 1485 1484 1482 1481 1480 1479 1478 1477 1476 1475 1475 1474 1473 1473 1472 1472 1471 1471 1470 1469 1469 1468 1467 1466
1515 1511 1511 1510 1508 1509 1508 1508 1506 1504 1501 1494 1494 1493 1491 1490 1488 1487 1486 1484 1483 1481 1480 1478 1477 1475 1474 1474 1473 1472 1471 1471 1470 1470 1469 1469 1468 1468 1467 1466 1466 1465 1464 1463
1515 1515 1510 1508 1502 1504 1503 1502 1501 1500 1495 1492 1492 1490 1489 1487 1486 1485 1483 1481 1480 1478 1477 1475 1474 1472 1471 1470 1470 1469 1468 1468 1467 1467 1466 1466 1465 1464 1464 1463 1462 1462 1461 1460
1520 1517 1511 1498 1496 1496 1497 1497 1496 1494 1492 1491 1489 1487 1486 1485 1484 1482 1480 1479 1477 1475 1474 1472 1471 1470 1468 1467 1466 1465 1465 1464 1464 1463 1463 1463 1462 1461 1461 1460 1459 1458 1458 1457
1521 1518 1509 1498 1494 1495 1497 1494 1491 1491 1489 1488 1487 1485 1483 1482 1481 1479 1478 1476 1474 1473 1471 1470 1468 1467 1465 1464 1463 1462 1462 1461 1461 1460 1460 1459 1459 1458 1458 1457 1456 1455 1455 1454
1519 1514 1508 1493 1492 1491 1494 1492 1488 1487 1487 1486 1486 1487 1482 1479 1478 1476 1475 1473 1471 1470 1468 1467 1465 1464 1462 1461 1460 1459 1459 1459 1458 1458 1457 1456 1456 1455 1455 1454 1453 1452 1451 1451
1516 1514 1501 1492 1491 1492 1496 1489 1485 1484 1483 1483 1483 1482 1479 1477 1475 1474 1472 1470 1469 1467 1466 1464 1463 1461 1460 1459 1458 1458 1457 1456 1456 1455 1455 1454 1453 1453 1452 1451 1451 1450 1449 1448
1514 1512 1500 1489 1489 1491 1488 1484 1483 1482 1481 1480 1479 1477 1476 1474 1472 1471 1469 1467 1466 1464 1463 1462 1460 1459 1458 1457 1456 1456 1455 1454 1454 1453 1452 1452 1451 1450 1449 1449 1448 1447 1446 1445
1501 1496 1488 1486 1485 1484 1484 1482 1481 1480 1479 1478 1476 1474 1473 1471 1470 1468 1466 1465 1463 1462 1460 1459 1458 1457 1456 1455 1454 1454 1453 1452 1452 1451 1450 1450 1449 1448 1447 1446 1445 1444 1443 1442
1495 1488 1484 1483 1482 1482 1482 1480 1479 1478 1477 1475 1473 1472 1470 1468 1467 1465 1464 1462 1461 1459 1458 1457 1456 1455 1454 1453 1452 1452 1451 1450 1450 1449 1448 1448 1447 1446 1445 1444 1443 1442 1441 1440
1491 1485 1482 1479 1479 1479 1479 1478 1477 1476 1474 1473 1471 1469 1468 1466 1464 1463 1461 1460 1459 1457 1456 1454 1454 1453 1452 1451 1450 1450 1449 1448 1448 1447 1446 1445 1445 1444 1443 1442 1441 1440 1439 1438
1484 1478 1479 1476 1476 1476 1476 1475 1474 1473 1471 1470 1468 1467 1465 1463 1462 1460 1459 1458 1456 1455 1454 1453 1452 1451 1450 1450 1449 1448 1447 1446 1446 1445 1444 1443 1443 1442 1441 1440 1439 1438 1437 1436
1476 1475 1475 1473 1473 1473 1473 1472 1471 1470 1468 1466 1465 1464 1462 1461 1459 1458 1457 1455 1454 1453 1452 1451 1450 1449 1449 1448 1447 1446 1446 1445 1444 1443 1442 1441 1441 1439 1438 1438 1437 1435 1434 1433
1472 1472 1471 1470 1470 1470 1469 1469 1468 1466 1465 1464 1462 1461 1459 1458 1457 1455 1454 1453 1452 1451 1450 1449 1448 1448 1447 1446 1445 1445 1444 1443 1442 1441 1441 1440 1439 1438 1437 1435 1434 1433 1432 1431
1468 1468 1468 1467 1467 1466 1466 1465 1464 1463 1462 1460 1459 1458 1456 1455 1454 1453 1452 1451 1450 1449 1448 1447 1446 1446 1445 1444 1443 1443 1442 1441 1441 1440 1439 1438 1437 1436 1435 1434 1432 1431 1430 1429
1465 1465 1464 1464 1463 1463 1462 1461 1460 1459 1458 1457 1456 1455 1454 1453 1451 1450 1449 1448 1447 1446 1446 1445 1444 1444 1443 1442 1441 1441 1440 1440 1439 1438 1437 1436 1435 1434 1433 1432 1430 1429 1428 1427
1462 1461 1461 1460 1460 1459 1459 1458 1457 1456 1455 1454 1453 1452 1451 1450 1449 1448 1447 1446 1445 1445 1444 1443 1442 1442 1441 1440 1440 1439 1438 1437 1437 1436 1435 1434 1433 1432 1431 1430 1429 1427 1426 1425
1459 1459 1458 1458 1457 1456 1455 1455 1454 1453 1452 1451 1450 1449 1448 1447 1446 1445 1444 1443 1443 1442 1442 1441 1440 1440 1439 1438 1438 1437 1436 1435 1434 1433 1433 1432 1431 1430 1429 1428 1427 1426 1424 1423
1457 1456 1455 1455 1454 1453 1452 1451 1450 1450 1449 1448 1447 1446 1445 1444 1443 1442 1441 1441 1440 1439 1439 1438 1438 1437 1437 1436 1435 1434 1434 1433 1432 1431 1431 1430 1429 1428 1427 1426 1425 1424 1423 1422
1455 1454 1453 1452 1451 1450 1449 1448 1447 1446 1446 1445 1444 1443 1442 1441 1440 1439 1439 1438 1437 1437 1436 1436 1435 1435 1434 1434 1433 1432 1431 1430 1430 1429 1428 1428 1427 1426 1425 1424 1423 1422 1421 1420
1453 1452 1451 1450 1449 1448 1447 1445 1444 1443 1443 1442 1441 1439 1439 1438 1437 1436 1435 1435 1435 1434 1433 1433 1432 1432 1432 1431 1430 1429 1429 1428 1427 1427 1426 1425 1425 1424 1423 1422 1421 1420 1419 1418
1451 1450 1448 1447 1446 1445 1444 1443 1441 1440 1439 1438 1438 1437 1436 1435 1434 1434 1433 1432 1432 1431 1431 1430 1430 1429 1429 1428 1428 1427 1426 1425 1425 1424 1424 1423 1422 1422 1421 1420 1419 1418 1417 1416
1449 1447 1446 1445 1443 1442 1441 1440 1439 1438 1436 1436 1435 1434 1433 1432 1431 1431 1430 1430 1429 1428 1428 1427 1427 1427 1426 1425 1425 1424 1424 1423 1422 1422 1421 1420 1420 1419 1418 1418 1417 1416 1415 1414
1446 1445 1443 1442 1441 1439 1438 1437 1436 1435 1434 1433 1432 1431 1430 1430 1429 1428 1428 1427 1426 1426 1425 1425 1424 1424 1423 1423 1422 1422 1421 1420 1420 1419 1418 1418 1417 1417 1416 1415 1414 1413 1412 1411
1443 1442 1441 1439 1438 1437 1435 1434 1433 1433 1432 1431 1430 1429 1428 1427 1427 1426 1425 1425 1424 1423 1423 1422 1422 1421 1421 1420 1419 1419 1418 1418 1417 1417 1416 1415 1414 1414 1413 1412 1412 1411 1410 1409
1440 1439 1438 1437 1436 1434 1433 1432 1431 1430 1429 1428 1427 1426 1425 1425 1424 1423 1423 1422 1422 1421 1420 1420 1419 1419 1418 1417 1417 1416 1416 1415 1414 1414 1413 1412 1412 1411 1410 1410 1409 1408 1408 1407
1437 1436 1435 1434 1433 1432 1431 1430 1428 1427 1426 1425 1424 1424 1423 1422 1422 1421 1420 1420 1419 1419 1418 1418 1417 1416 1416 1415 1415 1414 1413 1413 1412 1411 1411 1410 1409 1409 1408 1407 1407 1406 1405 1404